This is the latest recevied weather packets stored in our database for station/object N8SDR. If no packets are shown the sender has not sent any weather packets the latest 1 day(s).
| Time | Temp. | Humidity | Pressure | Rain* | Wind** | Luminosity | Snow |
|---|---|---|---|---|---|---|---|
| 1778040221 | 10° C | 99% | 1004 hPa | 4.32 mm | - | 0 W/m² | - |
| 1778039917 | 10.56° C | 99% | 1003.9 hPa | 1.27 mm | - | 0 W/m² | - |
| 1778039615 | 10.56° C | 99% | 1004 hPa | 0 mm | - | 0 W/m² | - |
| 1778039009 | 10.56° C | 99% | 1003.5 hPa | 3.05 mm | - | 0 W/m² | - |
| 1778038706 | 10.56° C | 99% | 1003.6 hPa | 3.56 mm | - | 0 W/m² | - |
| 1778038403 | 10.56° C | 99% | 1003.5 hPa | 1.78 mm | - | 0 W/m² | - |
| 1778038099 | 10.56° C | 99% | 1003.6 hPa | 0 mm | - | 0 W/m² | - |
| 1778037796 | 10.56° C | 99% | 1003.5 hPa | 1.27 mm | - | 0 W/m² | - |
| 1778037191 | 10.56° C | 99% | 1003.4 hPa | 1.78 mm | - | 0 W/m² | - |
| 1778036283 | 11.11° C | 99% | 1003.8 hPa | 0 mm | - | 0 W/m² | - |
| 1778035979 | 11.11° C | 99% | 1003.6 hPa | 1.78 mm | - | 0 W/m² | - |
| 1778035676 | 11.11° C | 99% | 1003.3 hPa | 1.78 mm | - | 0 W/m² | - |
| 1778035373 | 11.11° C | 99% | 1004 hPa | 0 mm | - | 0 W/m² | - |
| 1778035069 | 11.11° C | 99% | 1003.9 hPa | 3.05 mm | - | 0 W/m² | - |
| 1778034766 | 11.67° C | 99% | 1004.3 hPa | 4.32 mm | - | 0 W/m² | - |
| 1778034161 | 11.67° C | 99% | 1004.3 hPa | 4.83 mm | - | 0 W/m² | - |
| 1778033859 | 11.67° C | 99% | 1004.6 hPa | 4.83 mm | - | 0 W/m² | - |
| 1778033555 | 12.22° C | 99% | 1004.4 hPa | 4.83 mm | - | 0 W/m² | - |
| 1778033252 | 15° C | 99% | 1004.4 hPa | 3.05 mm | - | 0 W/m² | - |
| 1778032950 | 15° C | 99% | 1004.1 hPa | 4.32 mm | - | 0 W/m² | - |
| 1778032647 | 15° C | 99% | 1004.1 hPa | 4.83 mm | - | 0 W/m² | - |
| 1778032345 | 15° C | 99% | 1004.2 hPa | 3.05 mm | - | 0 W/m² | - |
| 1778031737 | 15° C | 99% | 1004 hPa | 4.83 mm | - | 0 W/m² | - |
| 1778031435 | 15° C | 99% | 1004.1 hPa | 3.05 mm | - | 0 W/m² | - |
| 1778031132 | 15° C | 99% | 1004 hPa | 0 mm | - | 0 W/m² | - |
* Rain latest hour (hover to see other rain measurements)
** Current wind speed in m/s (hover to see current wind gust speed)